Other Public Products
Issued by NWS Charleston, SC

Current Version | Previous Version | Graphics & Text | Print | Product List | Glossary On
Versions: 1 2 3 4 5 6 7 8 9 10 11 12 13 14 15 16 17 18 19 20 21 22 23 24 25 26 27 28 29 30 31 32 33 34 35 36 37 38 39 40 41 42 43 44 45 46 47 48 49 50
000 FPUS82 KCHS 171312 OPUCHS TEST...KCHS/KSAV Gateway Observations...TEST National Weather Service Charleston SC 900 AM EDT TUE OCT 17 2017 NOTE: "fair" indicates few or no clouds below 12,000 feet with no significant weather and/or obstructions to visibility. SCZ050-WAZ558-NCZ071-TXZ119-213-PAZ071-DCZ001-FLZ074-172-MI076- NYZ176-178-MAZ016-IL014-TNZ027-NJZ106-GAZ044-MD014-171400- ...Gateway Observations for Charleston International... CITY SKY/WX TMP DP RH WIND PRES REMARKS Chas Airport CLOUDY 54 46 74 NE14 30.26R Seattle CLOUDY 51 47 86 S10 29.96F Charlotte MOSUNNY 52 42 69 N10 30.36R Dallas DFW CLEAR 51 43 74 SE3 30.28S Dallas Love CLEAR 54 41 61 SE9 30.30R Philladelphia SUNNY 46 33 60 N8 30.37R Wash National SUNNY 50 36 58 NE9 30.40R Baltimore MOSUNNY 48 37 65 VRB3 30.38R Miami MOSUNNY 82 75 79 VRB3 30.00R Detroit MOSUNNY 46 39 76 SW13 30.25R Newark MOSUNNY 47 34 60 N9 30.35R Laguardia MOSUNNY 47 33 58 N14 30.35R J F K MOSUNNY 47 33 58 N14 30.36R Boston Logan MOSUNNY 45 33 63 NW10 30.30R Ft. Lauderdale MOSUNNY 80 76 87 N5 30.00R Chicago O`Hare PTCLDY 52 39 61 SW13 30.19R Chicago Midway PTCLDY 50 40 68 SW14G22 30.21S Houston Bush CLEAR 53 46 77 NE6 30.27R Houston Hobby CLEAR 58 44 60 NE12 30.25R Nashville SUNNY 44 42 93 CALM 30.37R Atlanta MOSUNNY 54 40 59 E15 30.32R $$ GAZ044-118-TXZ119-213-NCZ071-DCZ001-MDZ014-506-PAZ021-071-NJZ106- NYZ176-178-MAZ106-OHZ011-021-055-MIZ076-KYZ091-ILZ014-INZ047- MNZ060-ONZ431-171400- ...Gateway Observations for Savannah International... CITY SKY/WX TMP DP RH WIND PRES REMARKS Savannah Arpt CLOUDY 56 49 77 N12 30.25R Atlanta MOSUNNY 54 40 59 E15 30.32R Charlotte MOSUNNY 52 42 69 N10 30.36R Dallas DFW CLEAR 51 43 74 SE3 30.28S Houston Bush CLEAR 53 46 77 NE6 30.27R Wash National SUNNY 50 36 58 NE9 30.40R Wash Dulles SUNNY 45 39 79 NW5 30.39R Baltimore MOSUNNY 48 37 65 VRB3 30.38R Philadelphia SUNNY 46 33 60 N8 30.37R Newark MOSUNNY 47 34 60 N9 30.35R Laguardia MOSUNNY 47 33 58 N14 30.35R J F K MOSUNNY 47 33 58 N14 30.36R Boston MOSUNNY 45 33 63 NW10 30.30R Pittsburg NOT AVBL Akron SUNNY 44 36 73 SW8 30.33S Cleveland SUNNY 48 38 68 S10 30.33R Cincinnati MOSUNNY 46 43 89 CALM 30.37R Columbus SUNNY 40 40 99 CALM 30.37S Detroit MOSUNNY 46 39 76 SW13 30.25R Chicago O`Hare PTCLDY 52 39 61 SW13 30.19R Minneapolis PTCLDY 48 41 76 CALM 30.01S Indianapolis MOSUNNY 46 39 76 SW3 30.36R Toronto Canada PTSUNNY 46 37 71 S5 30.19F $$

USA.gov is the U.S. government's official web portal to all federal, state and local government web resources and services.